Flag for U.S.A. Weather past 2 weeks in Baton Rouge, Louisiana, U.S.A.

Now
68 °F

Sunny.


Feels Like: 68 °F
Forecast: 54 / 80 °F
Wind: 10 mph from Southeast

Location: Baton Rouge Metropolitan - Ryan Field

Current Time: Mar 29, 2015 at 11:36:05 AM

Latest Report: Mar 29, 2015 at 10:53 AM


Visibility: 10 mi

Pressure: 30.28 "Hg

Humidity: 63%

Dew point: 55 °F

Location of Baton RougeLocation

Historic Weather in Baton Rouge — Graph

°F

Baton Rouge temperature yesterday

Maximum temperature yesterday: 73 °F (at 3:53 PM)
Minimum temperature yesterday: 43 °F (at 6:53 AM)
Average temperature yesterday: 58 °F

Past Weeks' High & Low Weather Summary

 TemperatureHumidityPressure
High85 °F (Mar 17, 3:53 PM)100% (Mar 25, 7:01 AM)30.29 "Hg (Mar 25, 7:01 AM)
Low43 °F (Mar 28, 6:53 AM)32% (Mar 27, 2:53 PM)29.82 "Hg (Mar 26, 4:00 PM)
Average67 °F74%30.06 "Hg
* Reported Mar 14 9:53 AM — Mar 29 9:53 AM, Baton Rouge, Weather by CustomWeather, © 2015

Note: Actual official high and low records may vary slightly from our data, if they occured in-between our weather recording intervals... More about our weather records

Advertising

Baton Rouge weather history for previous 24 hours

 ConditionsComfort  
Time TempWeatherWind HumidityBarometerVisibility
9:53 AM
Sun, Mar 29
62 °FSunny.10 mph67%30.29 "Hg10 mi
8:53 AM55 °FSunny.10 mph74%30.28 "Hg10 mi
7:53 AM49 °FClear.8 mph84%30.27 "Hg10 mi
6:53 AM48 °FClear.9 mph89%30.25 "Hg10 mi
5:53 AM50 °FClear.7 mph93%30.22 "Hg10 mi
4:53 AM51 °FClear.7 mph92%30.20 "Hg8 mi
3:53 AM51 °FPassing clouds.5 mph96%30.20 "Hg9 mi
2:53 AM51 °FClear.5 mph92%30.20 "Hg10 mi
1:53 AM53 °FClear.5 mph89%30.21 "Hg10 mi
12:53 AM53 °FClear.5 mph86%30.22 "Hg10 mi
11:53 PM
Sat, Mar 28
56 °FClear.3 mph81%30.21 "Hg10 mi
10:53 PM58 °FClear.6 mph75%30.20 "Hg10 mi
9:53 PM58 °FClear.6 mph72%30.19 "Hg10 mi
8:53 PM60 °FClear.9 mph67%30.17 "Hg10 mi
7:53 PM66 °FSunny.9 mph50%30.15 "Hg10 mi
6:53 PM69 °FSunny.12 mph44%30.14 "Hg10 mi
5:53 PM72 °FSunny.12 mph38%30.13 "Hg10 mi
4:53 PM73 °FSunny.8 mph37%30.12 "Hg10 mi
3:53 PM73 °FSunny.N/A34%30.13 "Hg10 mi
2:53 PM72 °FSunny.No wind37%30.15 "Hg10 mi
1:53 PM69 °FSunny.3 mph36%30.19 "Hg10 mi
12:53 PM66 °FSunny.3 mph39%30.21 "Hg10 mi
11:53 AM63 °FSunny.5 mph41%30.23 "Hg10 mi
Weather by CustomWeather, © 2015

See weather overviewHow to use our weather pages